This is the latest recevied weather packets stored in our database for station/object KE4AMH. If no packets are shown the sender has not sent any weather packets the latest 10 day(s).
| Time | Temp. | Humidity | Pressure | Rain* | Wind** | Luminosity | Snow |
|---|---|---|---|---|---|---|---|
| 1778001710 | 25.56° C | 46% | 1016.1 hPa | 0 mm | - | 372 W/m² | - |
| 1778001410 | 25° C | 46% | 1015.9 hPa | 0 mm | - | 242 W/m² | - |
| 1778001107 | 24.44° C | 45% | 1016 hPa | 0 mm | - | 833 W/m² | - |
| 1778000804 | 25.56° C | 45% | 1016.5 hPa | 0 mm | - | 762 W/m² | - |
| 1778000501 | 25.56° C | 46% | 1016.6 hPa | 0 mm | - | 774 W/m² | - |
| 1778000201 | 26.11° C | 44% | 1016.5 hPa | 0 mm | - | 214 W/m² | - |
| 1777999897 | 25.56° C | 45% | 1016.1 hPa | 0 mm | - | 745 W/m² | - |
| 1777999593 | 25.56° C | 45% | 1016.3 hPa | 0 mm | - | 751 W/m² | - |
| 1777999291 | 25° C | 45% | 1016.3 hPa | 0 mm | - | 383 W/m² | - |
| 1777998989 | 25° C | 45% | 1016.4 hPa | 0 mm | - | 662 W/m² | - |
| 1777998686 | 25.56° C | 43% | 1016.3 hPa | 0 mm | - | 697 W/m² | - |
| 1777998384 | 25° C | 44% | 1016.4 hPa | 0 mm | - | 730 W/m² | - |
| 1777998081 | 25.56° C | 44% | 1016.4 hPa | 0 mm | - | 782 W/m² | - |
| 1777997778 | 25.56° C | 47% | 1016.1 hPa | 0 mm | - | 832 W/m² | - |
| 1777997475 | 25° C | 47% | 1016.5 hPa | 0 mm | - | 730 W/m² | - |
| 1777997173 | 25° C | 49% | 1016.5 hPa | 0 mm | - | 602 W/m² | - |
| 1777996870 | 24.44° C | 49% | 1016.8 hPa | 0 mm | - | 791 W/m² | - |
| 1777996566 | 25° C | 49% | 1016.7 hPa | 0 mm | - | 825 W/m² | - |
| 1777996263 | 25.56° C | 51% | 1016.8 hPa | 0 mm | - | 793 W/m² | - |
| 1777995959 | 25° C | 51% | 1016.8 hPa | 0 mm | - | 571 W/m² | - |
| 1777995655 | 23.89° C | 52% | 1016.8 hPa | 0 mm | - | 528 W/m² | - |
| 1777995352 | 23.33° C | 53% | 1016.9 hPa | 0 mm | - | 773 W/m² | - |
| 1777995050 | 23.33° C | 54% | 1017 hPa | 0 mm | - | 812 W/m² | - |
| 1777994746 | 23.89° C | 55% | 1016.8 hPa | 0 mm | - | 691 W/m² | - |
| 1777994442 | 22.22° C | 57% | 1017 hPa | 0 mm | - | 754 W/m² | - |
* Rain latest hour (hover to see other rain measurements)
** Current wind speed in m/s (hover to see current wind gust speed)